Погода в Мандалгоби

Монголия     45°45′43″N   106°16′18″E
темп.,
°C
ветер,
м/с
пор.,
м/с
влажн.,
%
обл.,
%
осадки,
мм/ч
давл.,
гПа
погр.,
м
24 января, пн
пн2423:00−14юз227796 0.0 102710
02:00−13ссз3487100 0.0 102784
05:00−15с4788100 0.1 1028228
08:00−16ссз510865 0.1 1030244
11:00−14сз610735 0.0 1030424
14:00−12сз795812 0.0 1027749
17:00−13ссз610635 0.0 1028627
20:00−15ссз511785 0.0 1031331
25 января, вт
вт2523:00−16ссз511825 0.0 1033306
02:00−17сз511915 0.0 1034284
05:00−17сз611915 0.0 1034283
08:00−18ссз410905 0.0 1035240
11:00−15ссз69755 0.0 1035395
14:00−13ссз68532 0.0 1032634
17:00−13ссз58590 0.0 1033463
20:00−16ссз48795 0.0 1036196
26 января, ср
ср2623:00−17ссз478144 0.0 1037148
02:00−17ссз468051 0.0 1038115
05:00−17ссз347879 0.0 103766
08:00−17ссз33750 0.0 103822
11:00−15сз23550 0.0 1037153
14:00−12зсз45430 0.0 1034524
17:00−12зсз35480 0.0 1034110
20:00−14зсз33640 0.0 103740
27 января, чт
чт2723:00−15зсз33680 0.0 103840
02:00−16зсз34720 0.0 103846
05:00−16зсз33710 0.0 103825
08:00−16зсз33700 0.0 103819
11:00−13з35520 0.0 1038157
14:00−10з45385 0.0 1034387
17:00−11з344010 0.0 103580
20:00−14з334656 0.0 103720
28 января, пт
пт2823:00−15з224966 0.0 103612
02:00−15з224784 0.0 10359
05:00−16зсз114811 0.0 10349
08:00−17юв01495 0.0 10349
11:00−13юв11345 0.0 103457
14:00−11ю11316 0.0 1031389
17:00−12ююв11404 0.0 103010
20:00−14вюв11500 0.0 10319